Location: Newark
(42.7133°N, 87.7910°W)
Time: 20:58:24
(UTC+00:00)

Vanguard 1 - Pass Details

Date: 27 September 2019
Orbit: 653 x 3830 km, 34.3° (Epoch: 14 October)

Event Time Altitude Azimuth Distance (km) Brightness Sun altitude
Rises 04:18:29 0° 208° (SSW) 6,494 - -44.7°
Reaches altitude 10° 04:22:50 10° 200° (SSW) 5,859 - -45.1°
Maximum altitude 04:39:59 37° 141° (SE) 4,870 - -46.5°
Exits shadow 04:52:28 23° 97° (E) 5,818 13.7 -47.3°
Drops below altitude 10° 04:59:40 10° 84° (E) 6,748 14.2 -47.7°
Sets 05:05:05 0° 77° (ENE) 7,544 14.6 -48.0°
